Time,TemperatureF,DewpointF,PressureIn,WindDirection,WindDirectionDegrees,WindSpeedMPH,WindSpeedGustMPH,Humidity,HourlyPrecipIn,Conditions,Clouds,dailyrainin,SoftwareType,DateUTC
2013-07-26 00:43:00,57.0,49.0,-100.00,SE,133,16.0,21.0,77,0.00,,,-99.99,,2013-07-26 00:43:00,
2013-07-26 01:32:00,57.0,48.0,-100.00,SSE,160,16.0,21.0,73,0.00,,,-99.99,,2013-07-26 01:32:00,
2013-07-26 01:43:00,57.0,50.0,-100.00,SSE,158,16.0,21.0,76,0.00,,,-99.99,,2013-07-26 01:43:00,
2013-07-26 02:12:00,57.0,50.0,-100.00,SE,133,12.0,14.0,76,0.00,,,-99.99,,2013-07-26 02:12:00,
2013-07-26 02:43:00,58.0,50.0,-100.00,SSE,148,4.0,7.0,75,0.01,,,-99.99,,2013-07-26 02:43:00,
2013-07-26 03:43:00,57.0,48.0,-100.00,SW,236,2.0,6.0,72,0.01,,,-99.99,,2013-07-26 03:43:00,
2013-07-26 04:42:00,52.0,51.0,-100.00,West,264,5.0,9.0,94,0.00,,,-99.99,,2013-07-26 04:42:00,
2013-07-26 05:02:00,53.0,51.0,-100.00,WSW,247,2.0,4.0,94,0.00,,,-99.99,,2013-07-26 05:02:00,
2013-07-26 05:43:00,54.0,50.0,-100.00,South,182,2.0,4.0,87,0.00,,,-99.99,,2013-07-26 05:43:00,
2013-07-26 06:02:00,55.0,49.0,-100.00,South,182,9.0,12.0,79,0.00,,,-99.99,,2013-07-26 06:02:00,
2013-07-26 06:12:00,55.0,48.0,-100.00,SSW,208,5.0,11.0,79,0.00,,,-99.99,,2013-07-26 06:12:00,
2013-07-26 07:43:00,57.0,44.0,-100.00,North,8,1.0,4.0,62,0.00,,,-99.99,,2013-07-26 07:43:00,
2013-07-26 08:44:00,52.0,50.0,-100.00,NNE,28,1.0,3.0,94,0.00,,,-99.99,,2013-07-26 08:44:00,
2013-07-26 09:02:00,52.0,48.0,-100.00,SW,227,4.0,6.0,86,0.00,,,-99.99,,2013-07-26 09:02:00,
2013-07-26 09:43:00,52.0,47.0,-100.00,WNW,294,3.0,6.0,83,0.00,,,-99.99,,2013-07-26 09:43:00,
2013-07-26 10:12:00,48.0,46.0,-100.00,West,263,7.0,10.0,90,0.00,,,-99.99,,2013-07-26 10:12:00,
2013-07-26 11:43:00,47.0,43.0,-100.00,West,265,5.0,6.0,85,0.00,,,-99.99,,2013-07-26 11:43:00,
2013-07-26 12:02:00,49.0,41.0,-100.00,SSE,162,4.0,9.0,72,0.00,,,-99.99,,2013-07-26 12:02:00,
2013-07-26 14:43:00,60.0,45.0,-100.00,NE,34,3.0,4.0,58,0.00,,,-99.99,,2013-07-26 14:43:00,
2013-07-26 15:12:00,60.0,48.0,-100.00,ENE,64,4.0,6.0,64,0.00,,,-99.99,,2013-07-26 15:12:00,
2013-07-26 15:43:00,62.0,47.0,-100.00,East,83,3.0,6.0,58,0.00,,,-99.99,,2013-07-26 15:43:00,
2013-07-26 16:43:00,66.0,45.0,-100.00,ENE,59,2.0,5.0,46,0.00,,,-99.99,,2013-07-26 16:43:00,
2013-07-26 17:43:00,69.0,42.0,-100.00,NE,37,4.0,8.0,38,0.00,,,-99.99,,2013-07-26 17:43:00,
2013-07-26 18:02:00,72.0,42.0,-100.00,NNW,346,1.0,5.0,33,0.00,,,-99.99,,2013-07-26 18:02:00,
2013-07-26 18:12:00,71.0,45.0,-100.00,ENE,68,3.0,7.0,39,0.00,,,-99.99,,2013-07-26 18:12:00,
2013-07-26 18:43:00,71.0,44.0,-100.00,NNE,25,4.0,9.0,38,0.00,,,-99.99,,2013-07-26 18:43:00,
2013-07-26 19:32:00,71.0,46.0,-100.00,NNE,28,8.0,13.0,41,0.00,,,-99.99,,2013-07-26 19:32:00,
2013-07-26 19:43:00,72.0,45.0,-100.00,NE,38,7.0,14.0,38,0.00,,,-99.99,,2013-07-26 19:43:00,
2013-07-26 20:43:00,73.0,34.0,-100.00,NNW,333,3.0,7.0,24,0.00,,,-99.99,,2013-07-26 20:43:00,
2013-07-26 21:12:00,75.0,37.0,-100.00,WNW,291,11.0,17.0,25,0.00,,,-99.99,,2013-07-26 21:12:00,
2013-07-26 21:43:00,76.0,34.0,-100.00,WNW,294,15.0,22.0,22,0.00,,,-99.99,,2013-07-26 21:43:00,
2013-07-26 23:12:00,76.0,36.0,-100.00,WNW,291,11.0,18.0,23,0.00,,,-99.99,,2013-07-26 23:12:00,